Home   Weather   Male   Past weeks
Flag for Maldives

Past Weather in Male, Maldives — Yesterday and Last 2 Weeks

Now
82 °F

Mostly cloudy.


Feels Like: 89 °F
Forecast: 86 / 81 °F
Wind: 14 mph from West

Location: Male Airport

Current Time: Sep 20, 2019 at 9:20:07 pm

Latest Report: Sep 20, 2019 at 8:00 pm


Visibility: N/A

Pressure: 29.86 "Hg

Humidity: 79%

Dew Point: 75 °F

Location of MaleLocation

Past Weather in Male — Graph

°F

Male Temperature Yesterday

Maximum temperature yesterday: 90 °F (at 12:00 pm)
Minimum temperature yesterday: 84 °F (at 12:00 am)
Average temperature yesterday: 86 °F

High & Low Weather Summary for the Past Weeks

 TemperatureHumidityPressure
High90 °F (Sep 6, 10:00 am)100% (Sep 6, 11:00 pm)29.95 "Hg (Sep 6, 11:00 pm)
Low77 °F (Sep 6, 11:00 pm)25% (Sep 8, 5:00 am)29.74 "Hg (Sep 10, 2:00 am)
Average85 °F77%29.84 "Hg
* Reported Sep 5 7:00 pm — Sep 20 7:00 pm, Male. Weather by CustomWeather, © 2019

Note: Actual official high and low records may vary slightly from our data, if they occured in-between our weather recording intervals... More about our weather records

Advertising

Male Weather History for the Previous 24 Hours

Scroll right to see more
 ConditionsComfort  
Time TempWeatherWind HumidityBarometerVisibility
7:00 pm
Fri, Sep 20
81 °FMostly cloudy.10 mph89%29.83 "HgN/A
6:00 pm79 °FOvercast.12 mph89%29.80 "HgN/A
5:00 pm79 °FLight rain. More clouds than sun.16 mph94%29.80 "Hg4 mi
4:00 pm81 °FLight rain. More clouds than sun.14 mph89%29.77 "Hg6 mi
3:00 pm79 °FSprinkles. Broken clouds.16 mph89%29.77 "Hg4 mi
2:00 pm86 °FSprinkles. Broken clouds.8 mph75%29.77 "HgN/A
1:00 pm88 °FBroken clouds.6 mph66%29.77 "HgN/A
12:00 pm86 °FBroken clouds.6 mph79%29.80 "HgN/A
11:00 am88 °FPartly sunny.6 mph70%29.83 "HgN/A
10:00 am88 °FBroken clouds.9 mph70%29.86 "HgN/A
9:00 am86 °FBroken clouds.13 mph75%29.86 "HgN/A
8:00 am86 °FBroken clouds.6 mph75%29.86 "HgN/A
7:00 am84 °FBroken clouds.7 mph74%29.83 "HgN/A
6:00 am84 °FPartly sunny.6 mph74%29.80 "HgN/A
5:00 am84 °FPartly cloudy.7 mph74%29.80 "HgN/A
4:00 am84 °FPartly cloudy.8 mph79%29.77 "HgN/A
3:00 am84 °FPassing clouds.7 mph74%29.77 "HgN/A
2:00 am84 °FPartly cloudy.9 mph74%29.80 "HgN/A
1:00 am84 °FPassing clouds.9 mph74%29.83 "HgN/A
12:00 am84 °FPassing clouds.8 mph79%29.83 "HgN/A
11:00 pm
Thu, Sep 19
84 °FPassing clouds.6 mph74%29.86 "HgN/A
10:00 pm84 °FPartly cloudy.5 mph79%29.86 "HgN/A
9:00 pm84 °FMostly cloudy.10 mph79%29.86 "HgN/A
Weather by CustomWeather, © 2019

See weather overview